Wind_Speed
33 36 40 43 44 47 48 46 48 48 47 47 49 51 51 51 49 47 41 47 51 53 53 52 50 50 51 52 50 50 54 49 38 33 30 36 47 47 49 44 43 41 36 35 37
41 44 48 51 53 54 50 50 49 49 49 50 51 52 53 55 54 50 50 50 48 51 54 54 57 59 57 54 56 54 57 47 32 36 38 45 51 47 51 49 47 46 39 41 39
49 51 54 56 56 55 52 51 53 53 53 53 54 54 55 57 57 54 54 55 56 55 54 56 55 61 63 58 58 59 59 44 39 41 43 48 53 51 51 52 45 42 46 46 44
55 59 60 59 57 57 56 55 57 61 60 59 60 58 58 58 59 55 58 59 61 61 61 60 59 60 63 65 56 63 61 53 45 46 49 49 54 58 54 49 46 49 51 49 45
59 63 66 64 66 68 64 63 63 63 64 66 65 66 64 62 55 57 64 62 62 64 66 66 66 64 63 62 63 69 67 60 53 52 54 54 57 59 57 51 46 48 51 49 46
64 65 66 67 61 61 58 56 57 57 57 59 64 66 68 67 57 60 65 66 64 63 65 69 70 69 71 69 68 68 68 67 63 58 58 61 58 59 58 50 50 49 52 50 49
67 68 71 68 63 58 54 52 52 52 55 57 61 63 66 61 64 65 66 65 63 65 67 67 70 75 76 74 72 69 72 73 69 62 62 61 64 61 52 46 50 54 52 53 49
72 70 71 66 61 57 55 53 54 53 55 55 57 61 62 57 63 65 67 69 66 65 64 65 70 74 79 80 78 75 75 75 73 70 65 66 67 58 55 50 50 54 55 53 52
74 73 67 64 60 60 61 62 61 58 59 61 65 69 57 56 60 63 68 66 68 68 69 68 68 71 78 81 83 81 80 79 76 74 70 69 68 61 56 53 53 52 55 56 53
76 68 64 62 62 66 65 67 66 64 65 67 71 73 65 67 72 71 69 72 71 71 72 73 72 71 74 81 89 87 85 83 80 71 68 70 72 67 59 57 57 55 54 58 58
73 67 66 66 65 69 71 73 75 73 71 71 70 70 71 71 77 72 74 79 78 75 75 71 75 79 73 73 78 81 84 82 79 76 70 70 72 72 67 64 62 61 57 58 60
69 69 70 70 72 76 77 74 73 75 70 64 64 69 68 68 67 63 75 79 78 76 70 67 73 74 68 68 68 77 83 85 81 76 76 74 75 75 72 68 64 63 60 57 58
69 73 74 74 76 75 71 70 71 72 72 61 65 66 57 57 59 57 64 69 73 75 71 70 65 61 63 63 63 71 81 83 82 74 74 78 81 77 76 70 69 69 64 60 58
72 74 75 77 76 72 69 69 68 70 71 59 47 19 27 34 32 37 46 56 64 68 64 65 58 52 58 59 61 67 68 74 74 69 76 72 85 79 77 75 69 68 70 67 62
72 74 75 73 73 72 70 67 65 60 56 38 37 37 30 28 26 25 27 29 44 56 60 60 55 49 54 58 59 59 58 63 67 64 64 68 76 87 79 76 71 65 68 67 64
73 72 73 71 70 70 66 63 55 42 40 34 20 25 26 26 36 36 26 14 25 35 55 57 59 48 41 41 49 45 52 58 60 62 69 74 69 90 80 73 70 65 63 58 64
73 70 71 72 70 65 58 51 43 41 28 14 26 30 23 24 36 35 34 18 11 10 21 39 57 43 37 37 46 48 52 52 59 62 65 67 64 86 83 74 72 68 63 63 47
72 69 69 70 65 56 51 41 39 25 17 23 21 21 16 13 11 24 31 24 20 13 7 23 40 56 49 39 38 43 45 51 57 58 63 59 63 81 80 75 71 70 65 61 61
72 68 69 65 58 47 42 33 20 11 16 18 15 19 11 19 16 14 16 24 14 7 13 11 22 36 61 49 36 39 38 41 52 56 58 62 64 64 68 66 62 66 67 65 62
74 69 69 61 47 42 38 24 14 14 20 20 21 27 24 18 16 14 10 13 17 19 12 10 20 21 37 48 57 57 50 43 35 49 58 60 62 61 65 65 63 62 61 65 66
73 71 66 58 41 38 31 16 12 14 20 19 28 17 18 13 7 12 9 14 20 19 15 20 9 14 22 33 36 49 65 61 47 51 40 38 45 44 55 56 55 57 60 63 61
74 72 65 49 34 39 32 19 13 15 16 18 14 14 12 8 10 9 10 12 15 19 11 2 9 13 17 25 27 30 40 45 50 60 57 51 51 49 50 54 48 38 34 36 40
76 72 58 42 33 35 31 16 15 14 10 15 12 15 12 14 11 5 5 9 13 15 11 8 9 8 11 16 21 22 25 29 37 46 46 47 46 28 28 36 40 35 37 38 37
75 72 51 35 36 39 33 13 12 16 11 7 5 12 16 13 12 7 7 9 11 15 11 9 7 9 8 13 17 21 20 25 29 31 31 32 29 25 28 39 39 39 31 34 38
73 62 41 31 38 41 27 16 9 16 10 15 7 16 14 11 5 8 12 8 11 15 16 6 5 11 14 15 15 14 17 23 26 28 30 28 30 33 32 29 38 35 39 34 34
71 51 38 35 38 34 19 16 9 7 11 9 14 11 10 10 15 12 14 15 11 15 22 13 5 14 9 13 19 12 13 11 9 21 28 28 27 30 41 35 31 29 43 50 49
70 44 35 38 36 22 17 14 6 11 7 12 16 11 12 17 19 21 21 18 14 14 16 11 10 11 12 9 8 12 14 15 15 15 20 26 26 26 34 39 35 34 33 42 50
Wind_Direction
304 303 301 299 297 298 297 291 285 282 278 273 268 263 261 259 259 258 258 254 259 257 252 253 253 253 249 249 247 248 249 251 249 248 245 237 239 233 238 235 235 231 230 233 232
307 304 302 299 296 297 294 294 288 281 275 271 267 264 260 257 257 256 254 255 255 255 254 254 250 249 248 248 249 246 252 251 252 244 240 236 240 237 237 239 234 235 223 230 236
307 304 300 298 296 294 291 290 288 283 279 270 264 263 261 258 254 254 251 252 251 252 252 251 250 250 246 247 247 249 249 254 244 246 240 238 242 239 238 237 238 243 237 229 229
310 306 303 299 296 292 287 283 284 281 277 272 268 263 260 260 255 255 252 249 250 249 249 250 247 248 248 245 247 250 250 246 243 242 243 239 241 242 236 236 235 233 236 236 232
312 310 311 308 304 301 296 291 285 279 276 274 269 264 261 258 256 261 255 250 246 246 247 248 248 248 248 250 245 244 246 247 243 241 243 241 241 244 240 235 235 236 239 238 238
314 313 312 312 307 303 297 293 288 281 274 271 269 267 264 257 258 257 258 259 253 249 245 245 246 248 245 243 243 242 246 244 241 238 241 244 242 245 244 239 237 235 237 236 237
317 317 317 314 309 304 298 292 287 284 276 270 270 268 266 262 259 256 256 255 258 254 251 249 245 243 245 246 243 243 243 243 241 241 240 243 244 244 251 244 240 240 236 235 235
320 318 318 314 309 306 304 299 292 287 283 280 277 273 271 268 263 262 260 258 256 257 256 254 251 246 241 243 245 243 242 242 240 241 239 240 241 241 245 245 241 241 241 238 236
320 320 315 312 308 306 304 301 295 290 285 281 278 276 275 268 263 260 258 258 258 257 256 254 250 249 245 242 241 242 241 242 241 239 239 239 241 241 242 243 242 238 243 241 236
321 318 314 312 309 306 303 300 295 291 287 285 283 282 277 270 264 259 260 258 256 255 253 251 251 249 244 244 241 241 243 243 245 242 243 242 240 243 240 241 242 241 236 241 239
320 317 315 314 310 307 303 300 297 291 285 285 284 283 278 271 268 264 261 259 256 254 252 252 251 249 249 248 247 248 246 244 243 246 245 243 240 242 239 236 237 239 238 237 241
319 317 317 315 312 311 311 309 306 302 296 293 291 284 278 274 267 264 259 259 256 254 252 250 248 249 249 250 246 244 246 244 244 244 245 243 241 240 239 235 236 240 241 238 237
320 319 317 315 316 317 314 310 306 303 301 303 296 290 287 278 272 263 259 256 254 252 247 247 251 253 249 249 247 244 242 244 246 246 245 246 241 240 240 239 232 233 238 240 239
320 318 319 318 319 318 315 313 311 306 305 310 296 298 281 276 261 251 247 248 247 248 243 244 243 231 238 242 244 244 242 241 244 246 246 246 248 239 239 241 238 232 235 236 237
320 321 324 322 323 320 318 315 311 311 311 307 301 298 286 267 243 213 220 240 244 235 235 228 218 237 240 243 240 246 240 239 242 243 244 242 246 243 239 238 241 236 237 241 243
322 326 325 324 323 320 319 316 316 317 318 320 333 332 303 258 237 208 225 233 245 244 230 224 223 223 230 225 240 239 237 237 239 242 244 244 245 244 245 240 240 241 239 242 244
326 328 326 326 324 322 321 319 314 321 323 346 327 328 314 300 240 223 227 237 213 229 252 231 213 213 222 216 231 230 233 232 235 236 241 244 247 244 245 242 242 242 240 239 246
329 330 328 327 325 325 322 319 313 316 322 326 322 335 326 330 284 240 240 235 226 262 255 229 216 220 216 209 208 218 237 234 235 235 241 239 243 244 247 247 242 243 243 241 238
332 333 328 328 326 325 323 326 327 321 326 315 330 335 332 320 308 240 249 234 221 229 243 234 225 223 217 217 209 210 228 234 238 240 249 249 248 249 245 247 246 245 246 244 242
333 334 329 328 326 327 327 322 311 316 311 316 325 332 324 329 304 284 236 237 227 212 213 218 226 231 218 225 227 224 220 218 228 246 243 250 252 254 248 252 253 249 246 247 246
334 335 331 329 325 331 329 307 281 293 307 310 326 325 339 346 305 282 242 236 229 190 210 196 234 234 223 224 230 230 231 230 232 235 233 243 244 255 251 253 256 253 250 247 248
336 334 331 329 320 325 323 294 272 276 307 325 346 339 342 339 318 274 275 263 250 226 240 146 130 187 212 220 234 237 238 236 239 234 253 259 252 259 257 250 248 247 249 245 246
335 333 332 327 322 324 328 280 279 277 303 329 335 346 325 318 317 283 264 277 282 239 217 165 141 175 200 214 206 224 228 236 241 241 252 258 257 245 242 237 247 243 244 242 232
333 332 332 329 325 326 326 266 247 267 278 288 24 14 351 322 302 298 292 291 276 274 219 209 147 175 187 184 176 220 224 232 227 232 241 252 241 240 239 242 249 246 245 244 235
334 333 328 323 322 324 317 278 246 255 257 311 295 339 317 311 317 302 311 315 270 262 232 186 253 216 187 198 184 207 236 236 239 241 243 249 252 245 240 251 246 235 230 252 231
333 327 320 310 311 321 301 279 264 275 275 309 301 296 307 304 310 324 317 310 241 253 228 225 185 206 224 205 207 232 228 213 239 233 240 247 245 244 234 242 244 248 241 244 248
335 321 315 306 314 312 292 257 248 285 269 291 304 291 297 301 307 308 310 298 239 220 232 212 199 198 219 224 233 255 256 260 260 265 243 241 232 242 242 239 249 249 251 249 249
Height
5743 5740 5737 5732 5728 5725 5721 5717 5714 5711 5709 5707 5705 5703 5704 5705 5707 5709 5712 5710 5712 5711 5714 5713 5716 5715 5714 5717 5717 5717 5713 5719 5730 5737 5744 5739 5729 5731 5734 5739 5741 5746 5755 5758 5757
5734 5730 5724 5719 5714 5710 5706 5702 5699 5696 5694 5692 5691 5690 5689 5690 5693 5699 5698 5699 5700 5697 5700 5700 5702 5699 5702 5706 5704 5703 5705 5713 5728 5726 5728 5728 5720 5726 5727 5732 5732 5735 5745 5747 5748
5723 5718 5712 5707 5701 5696 5691 5688 5686 5683 5680 5677 5676 5675 5676 5675 5680 5686 5685 5684 5686 5685 5685 5685 5685 5685 5688 5692 5692 5695 5692 5711 5714 5717 5713 5716 5714 5714 5717 5721 5730 5736 5734 5735 5740
5710 5704 5698 5692 5686 5681 5677 5673 5669 5665 5663 5661 5659 5658 5660 5660 5666 5670 5667 5666 5667 5669 5670 5669 5671 5670 5673 5675 5684 5679 5682 5692 5704 5703 5702 5702 5705 5702 5707 5715 5720 5722 5723 5726 5734
5696 5688 5681 5673 5668 5663 5657 5654 5650 5646 5643 5639 5638 5638 5641 5644 5657 5649 5643 5646 5647 5650 5652 5653 5654 5656 5658 5665 5668 5665 5669 5677 5687 5690 5690 5689 5689 5693 5696 5705 5710 5712 5716 5720 5725
5682 5675 5668 5660 5653 5645 5639 5635 5630 5626 5623 5619 5616 5616 5617 5627 5636 5631 5624 5624 5628 5630 5632 5633 5638 5638 5637 5641 5646 5652 5654 5660 5665 5674 5676 5675 5679 5679 5688 5700 5700 5702 5706 5710 5715
5668 5660 5652 5644 5636 5629 5623 5620 5613 5611 5606 5601 5595 5594 5596 5616 5609 5608 5607 5605 5605 5608 5611 5613 5615 5616 5622 5626 5631 5635 5637 5641 5650 5661 5663 5666 5663 5667 5682 5692 5690 5690 5696 5700 5705
5655 5646 5637 5627 5619 5612 5607 5603 5597 5596 5590 5585 5580 5575 5581 5594 5586 5587 5583 5585 5589 5590 5594 5594 5593 5597 5601 5606 5611 5617 5621 5624 5635 5639 5649 5649 5650 5665 5671 5677 5681 5681 5684 5691 5695
5641 5631 5621 5612 5605 5598 5592 5586 5581 5579 5573 5567 5562 5556 5571 5571 5564 5563 5559 5565 5566 5571 5573 5572 5572 5579 5582 5584 5588 5598 5604 5607 5614 5621 5628 5632 5640 5653 5660 5663 5667 5670 5671 5678 5684
5627 5616 5606 5597 5590 5580 5574 5566 5562 5559 5554 5549 5541 5536 5549 5542 5535 5537 5545 5543 5544 5545 5544 5547 5550 5554 5561 5563 5566 5582 5585 5591 5600 5613 5616 5622 5626 5634 5647 5649 5653 5658 5661 5663 5669
5614 5602 5592 5584 5575 5563 5556 5547 5541 5537 5535 5530 5525 5512 5514 5507 5509 5524 5519 5507 5512 5517 5518 5531 5524 5526 5549 5558 5569 5569 5567 5575 5589 5592 5599 5603 5612 5617 5626 5632 5638 5642 5648 5652 5658
5600 5589 5578 5568 5558 5545 5534 5523 5511 5499 5500 5504 5499 5483 5481 5478 5487 5495 5479 5481 5491 5495 5504 5503 5497 5522 5539 5539 5543 5545 5548 5557 5568 5575 5578 5590 5592 5595 5604 5618 5627 5631 5637 5642 5647
5587 5575 5563 5551 5542 5529 5517 5506 5494 5481 5473 5484 5466 5456 5454 5451 5458 5466 5464 5460 5466 5472 5479 5481 5496 5513 5514 5516 5519 5526 5531 5548 5552 5559 5564 5563 5569 5581 5588 5599 5608 5615 5624 5630 5635
5574 5562 5549 5536 5527 5514 5502 5489 5477 5462 5451 5459 5446 5438 5438 5436 5439 5440 5437 5437 5445 5449 5465 5463 5480 5483 5491 5496 5505 5506 5525 5535 5534 5538 5542 5548 5543 5562 5574 5578 5592 5608 5609 5615 5621
5561 5548 5533 5516 5505 5495 5484 5472 5460 5449 5437 5439 5436 5425 5426 5428 5428 5431 5425 5424 5425 5431 5443 5450 5462 5468 5475 5484 5493 5497 5514 5516 5518 5519 5524 5527 5526 5541 5554 5565 5581 5597 5601 5606 5612
5549 5535 5518 5509 5495 5480 5468 5455 5446 5441 5431 5429 5423 5420 5416 5417 5414 5419 5418 5420 5420 5420 5421 5438 5453 5455 5465 5476 5477 5495 5493 5500 5503 5504 5497 5512 5516 5523 5536 5565 5572 5581 5589 5592 5595
5538 5524 5505 5491 5481 5466 5455 5444 5438 5432 5427 5425 5418 5415 5409 5403 5405 5411 5412 5416 5417 5416 5418 5429 5436 5445 5453 5458 5469 5475 5480 5485 5487 5484 5485 5501 5498 5512 5524 5549 5558 5563 5572 5579 5579
5527 5512 5497 5481 5468 5455 5444 5438 5431 5426 5422 5420 5414 5411 5406 5402 5402 5405 5407 5412 5414 5414 5415 5418 5425 5435 5447 5451 5456 5463 5470 5473 5472 5475 5481 5489 5478 5493 5519 5529 5539 5545 5556 5561 5569
5515 5503 5483 5472 5459 5448 5439 5432 5426 5423 5420 5414 5412 5408 5407 5402 5400 5401 5405 5407 5411 5412 5415 5416 5421 5426 5433 5441 5447 5456 5457 5467 5467 5469 5472 5475 5479 5489 5504 5510 5522 5533 5538 5546 5552
5501 5490 5472 5460 5450 5441 5433 5428 5423 5422 5417 5414 5409 5406 5403 5401 5399 5399 5402 5404 5406 5408 5409 5413 5415 5417 5423 5427 5432 5440 5452 5454 5458 5458 5459 5463 5469 5474 5496 5502 5508 5514 5522 5526 5530
5487 5476 5460 5449 5440 5434 5427 5423 5420 5420 5416 5413 5409 5404 5401 5398 5398 5399 5401 5402 5403 5404 5408 5408 5411 5415 5417 5423 5430 5434 5437 5442 5450 5448 5450 5456 5458 5474 5484 5488 5490 5496 5501 5508 5515
5477 5464 5449 5438 5433 5427 5422 5418 5418 5415 5415 5411 5406 5403 5400 5399 5398 5398 5400 5398 5400 5401 5404 5404 5408 5412 5415 5420 5423 5426 5432 5436 5439 5446 5447 5451 5454 5469 5472 5475 5478 5482 5487 5491 5498
5462 5452 5441 5430 5424 5421 5416 5413 5411 5411 5412 5409 5405 5403 5401 5399 5397 5397 5397 5398 5398 5398 5400 5403 5404 5409 5412 5414 5418 5422 5427 5431 5434 5439 5442 5445 5453 5458 5459 5460 5464 5470 5474 5479 5484
5448 5435 5430 5422 5418 5412 5408 5407 5408 5409 5409 5406 5403 5402 5400 5397 5395 5395 5397 5397 5397 5396 5400 5401 5402 5405 5407 5409 5412 5417 5420 5424 5428 5432 5438 5439 5445 5449 5450 5451 5453 5458 5464 5469 5473
5441 5429 5420 5417 5413 5409 5404 5402 5404 5405 5406 5402 5402 5398 5396 5395 5395 5395 5394 5393 5394 5394 5395 5395 5397 5402 5405 5407 5410 5413 5417 5419 5422 5426 5429 5434 5435 5439 5441 5443 5444 5449 5455 5457 5460
5432 5420 5413 5411 5407 5404 5401 5400 5401 5402 5401 5401 5398 5398 5396 5394 5393 5391 5391 5390 5390 5391 5394 5396 5398 5400 5403 5406 5408 5411 5413 5416 5418 5419 5423 5425 5427 5428 5431 5436 5438 5441 5444 5447 5452
5428 5415 5408 5404 5401 5399 5397 5397 5399 5398 5401 5399 5397 5395 5394 5393 5390 5388 5386 5385 5385 5387 5390 5395 5397 5399 5402 5406 5408 5410 5411 5413 5414 5416 5419 5419 5420 5422 5425 5427 5429 5432 5435 5438 5442